Dewpoint
62 66 66 67 69 68 68 67 68 69 71 72 71 72 72 72 73 73 74 74 73 73 73 72 71 72 71 69 70 69 72 72 70 70 69 68 70 71 74 73 74 74 73 72 72 72 72 73 74 73 71 72 72 71 71 72 74 73 73 75 70 69 68 67 64 67 66 66 69 67 64 65 64 66 72 73 75 75 75 74 73 74 74 73 73
65 67 67 66 66 67 66 66 69 69 71 71 72 73 73 71 72 72 74 74 74 73 73 73 73 72 70 70 68 68 70 71 70 70 67 66 71 73 73 72 73 73 73 73 72 71 72 71 74 73 71 72 73 73 74 74 75 73 71 70 72 70 69 66 64 66 64 63 65 65 66 63 65 66 69 72 73 72 72 74 75 74 74 72 74
61 64 64 62 62 64 68 69 67 67 70 70 72 72 73 72 73 73 73 74 74 74 74 73 73 74 72 71 70 70 71 70 69 69 69 67 69 71 72 72 73 73 73 73 72 71 71 72 73 72 73 73 72 72 73 73 73 72 73 71 68 69 68 67 70 70 65 66 68 67 63 58 61 69 68 72 71 72 71 68 69 67 73 72 73
63 63 61 60 61 63 65 66 66 66 68 70 71 70 70 72 73 74 73 73 74 73 74 74 74 74 74 74 73 72 72 72 73 73 72 71 69 69 72 72 72 70 70 69 68 69 71 72 72 71 75 74 73 73 73 72 72 72 70 71 73 69 66 67 69 70 70 68 67 64 64 57 58 63 64 70 69 71 69 69 71 70 73 71 73
64 65 63 62 63 64 64 66 65 65 68 68 69 70 71 71 75 74 75 73 74 74 73 74 74 74 74 74 74 74 74 73 72 71 72 73 71 71 70 72 71 69 68 69 69 70 71 73 73 72 73 74 72 72 71 68 69 70 72 72 72 70 67 68 69 68 68 70 69 68 66 58 59 61 60 72 72 73 71 69 69 72 67 70 71
63 62 62 61 62 66 67 66 65 65 66 68 68 71 72 72 71 74 76 74 72 73 74 74 74 74 73 73 72 72 71 71 71 70 70 69 69 69 70 70 70 69 68 69 69 69 72 73 73 72 71 72 71 69 70 70 71 69 70 71 70 72 73 70 67 69 67 70 70 68 70 66 65 64 64 67 72 72 72 70 70 68 67 68 72
63 63 62 61 62 63 65 67 65 68 67 69 69 69 71 72 72 73 75 75 73 73 74 74 74 73 73 71 71 70 70 70 72 72 72 67 68 69 70 70 71 69 68 69 69 71 71 72 73 73 71 71 72 71 70 68 66 68 70 71 71 72 74 71 70 67 68 68 65 65 67 67 66 65 66 65 67 69 71 70 72 71 69 70 72
63 63 63 62 63 63 66 67 67 67 67 67 66 68 71 73 72 73 74 74 73 73 73 74 74 73 73 72 71 71 69 71 73 73 70 70 69 70 70 70 72 70 68 70 70 70 72 72 73 73 70 70 69 69 67 67 68 70 73 74 74 74 74 71 71 70 68 67 66 67 68 67 67 69 67 64 68 66 69 67 71 70 72 72 72
62 62 62 62 63 63 66 68 68 68 67 65 67 70 71 72 73 72 74 74 73 73 73 74 74 73 73 72 72 72 72 71 72 73 72 72 72 71 72 69 70 72 71 69 71 70 71 71 72 72 70 70 70 68 67 66 68 70 74 75 75 74 73 72 73 72 70 67 66 69 68 69 68 69 69 69 69 68 68 68 68 72 72 73 72
61 63 64 64 63 65 66 68 67 69 68 65 69 69 71 73 73 73 75 75 75 74 74 73 74 73 73 72 72 73 73 73 72 71 73 73 72 72 73 72 69 70 71 71 71 71 71 71 70 70 70 68 68 67 67 67 69 71 72 71 73 75 74 72 72 71 70 69 66 67 70 69 69 69 71 71 72 70 68 70 71 70 70 71 72
63 63 64 66 66 67 66 68 70 71 68 68 68 70 70 72 71 73 75 75 74 73 73 72 73 73 73 73 73 73 73 73 72 72 73 73 72 70 71 72 70 69 69 71 69 69 70 71 68 68 68 69 69 68 67 65 65 67 67 70 74 75 73 73 72 72 71 71 68 68 67 65 71 67 70 71 70 70 70 70 68 68 71 68 67
63 63 65 66 67 68 67 68 70 71 69 68 68 71 70 71 71 73 74 73 73 72 73 72 72 72 72 72 73 73 74 72 72 71 71 72 71 70 71 71 71 70 70 69 69 67 69 69 70 69 69 68 68 69 67 66 64 63 65 68 72 74 75 74 73 71 69 68 67 66 65 63 71 71 71 71 71 71 71 69 69 72 72 64 67
63 64 66 67 67 68 67 68 70 71 70 70 70 71 71 72 72 73 72 72 71 71 72 72 72 72 72 72 72 73 73 74 73 72 71 71 70 70 71 71 72 71 69 69 68 69 69 70 70 69 69 70 71 70 71 70 68 65 65 64 67 71 73 74 72 71 69 67 66 64 64 64 69 72 71 71 71 71 71 72 72 73 64 65 67
63 65 67 68 68 67 68 69 71 72 71 70 71 72 72 72 73 72 71 72 72 72 72 72 72 73 73 73 72 73 73 74 72 71 70 71 70 71 69 68 70 70 69 70 68 68 68 69 71 71 72 72 73 73 73 72 72 68 66 66 64 67 70 73 74 71 71 70 69 66 66 65 63 71 70 72 70 70 71 71 71 71 64 63 66
64 66 66 66 67 69 69 70 72 71 70 71 72 72 72 72 72 71 71 72 72 72 73 73 72 72 73 73 73 73 72 72 71 71 71 70 69 69 71 69 68 69 69 71 71 70 69 70 70 71 71 72 73 73 70 71 73 72 69 69 68 65 68 70 69 67 66 67 69 68 68 66 63 66 69 70 73 71 71 72 72 68 64 64 63
64 64 66 68 69 69 70 70 71 71 71 69 72 72 72 71 71 72 71 72 73 72 73 73 73 72 73 73 73 73 74 72 72 73 73 72 71 71 71 71 70 70 71 71 69 70 70 70 70 70 71 71 72 73 72 70 71 70 69 68 69 62 64 68 68 66 65 65 66 70 69 66 66 65 69 71 73 74 73 73 72 69 67 65 65
66 66 66 68 69 69 70 70 69 69 70 70 72 71 72 72 72 72 73 73 73 72 72 73 73 73 73 72 72 73 73 72 70 71 70 71 72 72 70 69 69 71 69 70 70 71 71 70 70 69 70 71 72 72 70 71 72 70 67 70 68 64 67 68 68 68 69 66 67 68 67 66 66 69 68 68 72 73 72 72 70 69 69 68 67
67 68 68 68 68 69 68 68 68 69 69 70 72 71 71 71 72 71 72 73 73 72 71 72 73 73 73 73 73 73 71 71 71 70 69 70 71 72 71 70 69 68 69 67 69 70 71 71 71 70 70 70 71 70 70 71 72 70 68 69 68 69 69 69 69 68 67 67 68 67 66 64 66 66 66 67 68 73 69 67 68 68 73 69 69
66 67 67 68 68 68 69 68 68 69 70 71 71 70 70 71 72 72 72 73 73 73 73 73 74 73 72 72 71 72 72 72 70 71 70 69 69 69 70 70 69 70 70 71 71 68 70 70 71 70 70 70 70 70 70 71 71 70 67 66 68 71 70 70 70 68 66 65 67 66 66 65 67 66 68 67 68 68 67 67 67 69 70 71 71
66 67 68 68 68 68 68 68 68 68 69 68 68 70 69 71 72 72 72 72 72 72 74 74 73 72 72 72 73 74 74 72 72 72 70 70 69 68 69 68 69 69 69 70 70 69 69 69 68 67 67 67 67 67 68 69 71 69 66 64 65 69 69 70 68 65 62 63 66 67 68 68 68 68 69 68 68 69 69 68 68 69 71 71 73
66 67 68 68 68 68 69 68 68 68 68 69 68 68 71 71 73 71 72 70 73 73 73 73 74 73 73 72 71 73 72 73 71 71 72 70 70 70 68 69 70 70 70 69 69 70 70 69 68 69 66 68 69 68 68 68 70 71 70 70 69 69 69 68 69 67 65 64 66 67 68 68 68 67 68 68 67 67 68 68 69 68 67 70 71
63 64 64 66 68 68 68 68 68 67 67 68 68 70 72 72 70 69 71 71 71 73 72 72 73 74 74 73 72 72 74 73 72 73 71 70 68 70 71 71 69 70 70 69 69 69 70 69 68 68 68 66 68 70 67 68 69 70 70 65 65 70 72 71 70 70 68 65 66 68 68 67 69 68 69 68 67 66 66 65 66 66 67 68 71
63 64 64 65 67 67 66 67 68 68 69 69 69 70 72 73 72 71 72 72 70 71 72 72 73 72 73 73 75 74 72 73 73 74 72 71 68 69 71 70 70 69 70 70 68 68 69 70 69 69 69 68 69 68 69 68 68 69 69 66 62 65 68 67 67 68 66 67 66 67 67 68 67 68 71 69 69 69 68 68 67 66 68 68 70
66 66 64 67 67 67 68 68 68 68 68 68 70 70 70 70 70 70 70 73 73 70 71 72 73 73 72 72 73 73 72 72 72 74 72 69 68 69 70 70 70 69 68 70 69 68 69 71 71 70 70 70 68 68 68 68 68 68 69 69 68 67 65 66 65 65 64 65 65 66 66 67 69 71 72 71 71 70 70 70 69 70 71 70 72
67 67 67 68 69 69 69 68 68 68 68 68 69 69 69 68 69 69 69 70 71 72 71 72 73 73 73 73 72 72 72 72 73 73 72 72 70 69 70 70 70 69 69 69 70 70 70 70 68 69 70 70 70 69 70 68 68 68 69 68 69 70 68 67 66 66 66 66 66 66 67 69 70 70 71 71 70 71 71 71 71 71 71 71 71
67 68 68 68 69 69 69 68 68 67 67 67 68 67 67 69 69 69 69 69 70 69 70 70 70 70 72 73 73 73 72 72 73 72 71 69 70 70 70 70 70 70 70 69 70 70 69 70 70 70 69 70 70 70 71 71 69 68 68 69 69 69 67 67 66 65 66 67 67 68 68 69 68 69 69 70 72 73 73 73 72 72 71 72 73
67 68 68 68 69 68 68 68 67 67 67 68 67 67 68 68 68 68 69 69 70 70 70 70 69 69 70 71 73 72 73 72 72 71 70 70 70 70 70 70 70 70 69 68 68 70 71 71 71 69 68 69 70 70 72 72 71 70 70 69 67 68 67 66 66 66 66 68 69 69 69 69 69 69 69 70 70 72 73 73 74 74 73 73 72
68 68 68 68 68 68 69 67 67 67 67 68 67 67 67 67 67 68 69 69 69 69 69 69 69 69 69 70 70 73 73 72 72 72 72 71 70 70 70 71 71 71 70 69 68 68 69 70 70 70 70 70 71 71 72 73 72 71 69 68 68 68 66 66 65 66 65 66 69 70 71 70 70 69 69 69 71 72 73 73 72 73 74 74 73
67 68 68 68 68 69 69 68 68 68 67 67 67 68 68 68 68 68 68 69 69 69 69 69 69 69 69 70 71 71 72 72 73 74 72 71 71 71 71 72 72 72 70 70 70 68 68 68 69 70 71 70 70 69 68 70 71 71 70 68 69 68 68 67 67 65 67 67 69 70 71 70 71 71 72 72 71 73 74 73 74 75 75 75 75
64 66 68 68 68 69 69 68 69 68 67 68 68 68 67 66 66 67 68 69 68 69 68 68 68 68 69 69 69 70 70 70 71 71 72 73 73 73 73 73 73 73 74 74 74 72 70 68 68 70 70 70 70 68 72 74 73 71 71 68 67 68 70 69 68 68 66 67 68 70 71 72 73 74 76 77 76 76 76 73 73 75 76 76 75
64 67 67 68 69 69 68 68 68 68 68 67 67 68 67 66 67 67 68 69 69 68 68 68 68 68 68 68 68 68 69 69 70 70 71 71 71 72 73 74 74 73 73 74 73 72 71 70 68 68 68 69 68 68 75 68 68 71 71 70 69 70 70 70 69 69 69 69 69 69 70 70 76 76 76 78 77 77 76 76 76 75 76 76 76
65 67 68 68 68 68 68 68 68 68 68 68 68 68 66 66 67 67 67 68 68 68 67 67 67 68 67 67 67 68 68 68 68 69 69 70 70 71 71 73 72 71 73 72 72 72 73 71 70 69 69 69 69 72 68 67 68 67 71 69 68 68 69 69 70 69 68 68 69 69 69 70 71 75 76 77 77 77 76 76 75 75 76 76 75
66 68 68 69 68 69 68 67 68 69 68 68 68 67 66 65 66 67 67 67 67 66 67 66 66 66 67 67 67 67 67 67 67 68 68 68 69 70 70 70 71 72 72 72 73 72 72 72 71 72 71 70 69 71 65 66 66 66 67 72 67 69 69 69 70 70 71 70 70 69 70 70 72 76 76 74 76 78 76 75 75 76 76 75 72
67 68 68 68 68 68 67 68 69 69 68 69 68 66 65 66 66 67 67 67 66 66 66 65 66 66 65 66 66 66 65 66 67 67 67 67 67 68 68 69 70 71 72 72 71 72 72 73 73 72 73 72 71 74 66 66 66 66 66 69 69 69 70 70 71 72 72 73 73 72 72 72 73 75 76 75 75 78 77 76 76 76 76 75 73
67 68 67 68 69 68 68 69 68 67 68 67 66 66 66 66 66 66 67 66 66 65 65 64 65 65 65 65 65 65 65 66 66 66 67 67 67 67 67 68 69 69 71 71 71 71 71 72 72 72 72 71 72 66 65 65 64 64 65 69 68 68 69 69 70 72 73 74 74 74 74 73 74 74 76 76 75 78 78 77 77 76 76 75 74
66 68 68 69 68 68 68 69 68 68 67 67 66 65 65 65 65 65 65 65 65 65 64 64 64 65 65 65 64 64 65 65 66 66 66 66 67 67 67 68 68 68 69 70 70 71 72 72 71 73 71 71 72 64 65 65 64 64 66 69 70 70 70 69 70 71 72 74 75 75 75 75 75 74 76 73 75 77 77 76 76 76 75 74 73
68 67 69 70 69 68 69 70 69 67 67 66 65 65 65 65 65 65 65 65 64 64 64 64 64 64 64 64 65 64 64 65 65 64 64 65 66 66 66 67 67 67 68 68 69 70 71 72 72 72 71 72 72 68 63 64 63 63 66 70 71 70 71 71 71 72 72 73 74 75 75 74 74 75 73 67 69 75 76 76 75 75 73 72 71
65 68 70 70 68 67 68 68 68 67 67 65 65 65 65 65 65 64 65 64 64 64 63 64 63 64 64 64 64 64 64 64 64 64 64 64 65 66 66 67 67 67 67 68 69 69 70 71 71 71 72 71 70 64 60 59 59 62 67 71 73 72 73 73 73 74 75 74 74 74 74 74 74 75 69 65 66 74 75 74 73 73 72 71 71
68 69 69 67 68 68 68 67 67 67 66 66 65 65 64 63 64 64 64 63 63 64 63 63 63 64 64 64 64 64 64 64 63 64 64 64 65 66 66 66 67 67 67 68 67 68 69 70 71 71 71 71 70 65 58 58 58 60 67 72 72 73 74 73 73 73 73 73 73 74 74 74 74 74 61 63 65 72 74 74 73 73 72 71 71
66 67 67 68 68 68 66 66 66 67 64 65 64 64 63 63 63 64 63 64 64 63 64 64 64 63 63 63 64 63 63 64 63 63 64 64 65 65 65 66 66 66 67 67 69 68 69 69 70 70 70 70 70 68 64 57 57 58 61 70 71 71 72 72 73 71 72 71 72 73 73 72 68 64 58 60 62 65 73 74 75 73 71 70 70
63 64 67 67 66 65 64 64 65 66 63 62 63 62 62 63 63 63 63 64 64 65 64 63 63 63 63 63 63 63 63 64 64 63 64 64 65 65 65 65 65 66 66 67 68 68 68 65 65 65 66 65 65 66 65 56 55 55 56 60 70 71 71 71 72 72 71 71 72 72 70 64 60 61 57 57 58 60 67 74 74 72 72 72 69
64 66 66 64 62 64 63 63 65 63 63 63 63 63 61 63 63 63 64 65 65 65 63 64 64 63 63 63 63 63 63 63 63 64 64 64 64 64 64 64 64 64 64 64 66 66 64 63 63 63 63 63 63 62 63 58 55 53 53 55 64 70 71 71 70 70 70 70 71 70 68 62 55 58 57 55 55 56 58 67 70 63 62 62 68
66 65 64 62 63 62 61 62 61 61 62 62 62 63 62 63 63 64 64 65 65 64 64 63 63 63 63 63 63 63 63 63 63 63 63 63 64 64 64 64 63 63 63 63 63 63 63 63 62 62 63 62 62 61 59 62 56 52 52 53 54 60 63 69 69 69 69 69 69 68 66 58 51 49 50 52 53 55 59 56 53 55 57 59 63
63 62 62 62 63 62 61 60 60 62 62 62 63 63 62 63 64 65 65 64 64 63 63 62 62 63 63 62 62 62 62 62 62 62 62 62 63 63 63 63 63 62 62 62 62 63 63 62 62 61 61 62 63 63 60 58 58 53 52 51 52 54 57 68 69 67 66 65 65 64 57 49 47 47 49 51 54 56 57 52 53 55 57 60 61
62 62 63 63 61 61 60 60 61 62 62 63 63 62 62 64 64 64 65 64 63 63 63 62 62 63 62 62 61 61 61 61 61 61 61 61 61 62 62 62 62 62 62 61 61 61 61 61 61 60 60 61 62 63 62 60 57 55 53 52 53 54 55 57 64 63 62 58 53 49 48 49 49 50 50 51 52 52 52 53 53 55 60 59 58
63 64 63 62 61 60 59 60 60 60 61 63 62 61 62 65 64 65 64 63 63 63 63 62 62 62 62 61 61 60 60 60 60 60 60 60 60 60 60 60 61 61 61 60 60 60 60 60 60 60 60 60 61 61 62 62 61 59 56 53 54 55 57 58 58 57 55 52 52 51 51 52 53 56 61 60 59 57 53 53 54 58 57 57 56
64 64 64 62 60 58 59 59 58 59 59 59 61 59 63 64 64 61 61 63 63 62 62 62 62 61 61 61 60 58 57 57 57 57 57 58 59 58 58 58 59 59 60 60 60 59 59 59 59 60 60 60 60 61 62 62 62 62 61 61 61 60 58 58 59 59 58 60 60 58 56 53 54 54 56 56 57 58 58 58 58 58 59 60 59
66 65 63 62 60 59 59 59 60 60 60 58 58 60 61 62 60 58 59 62 63 61 60 61 60 61 61 60 59 59 58 55 55 55 55 55 56 58 57 56 56 56 58 59 59 59 59 59 59 59 59 59 58 59 59 59 61 61 61 61 61 61 62 61 60 60 60 59 59 57 57 59 58 58 57 57 58 58 57 56 55 55 56 58 58
66 65 64 63 62 61 61 61 61 60 59 59 60 60 60 62 60 60 63 62 61 61 62 60 59 59 59 60 58 57 57 57 56 57 55 55 53 54 57 55 54 53 53 55 58 57 58 58 58 58 58 58 57 57 55 48 54 50 59 61 60 60 60 60 60 57 61 61 61 60 59 58 57 56 56 56 55 56 57 57 57 57 58 58 57
66 65 64 64 64 64 62 62 62 61 59 60 60 61 61 58 60 62 63 62 62 60 59 58 58 58 58 58 57 56 57 57 55 56 56 54 50 46 49 53 53 50 47 45 47 52 53 55 54 53 53 54 54 54 46 44 44 45 46 47 48 48 50 56 56 55 58 57 57 56 55 54 54 53 52 53 53 54 55 56 57 57 58 58 58
64 64 65 65 65 64 63 63 62 61 60 61 61 60 61 60 61 62 62 63 62 60 59 58 58 57 58 58 57 57 57 58 57 56 56 56 53 53 44 45 48 47 44 42 41 42 44 47 56 52 50 47 46 44 42 43 43 44 44 44 44 44 45 48 52 58 56 55 54 53 52 52 51 51 51 51 52 53 54 55 56 57 57 57 56